Location: Ditterswind
(50.1692°N, 10.6348°E)
Time: 17:51:03
(UTC+00:00)

Cosmos 2360 Rocket - Pass Details

Date: 07 June 2020
Orbit: 832 x 846 km, 71.0° (Epoch: 08 July)

Event Time Altitude Azimuth Distance (km) Brightness Sun altitude
Exits shadow 00:43:40 - 149° (SSE) 2,813 4.6 -14.5°
Reaches altitude 10° 00:45:03 10° 140° (SE) 2,443 4.3 -14.5°
Maximum altitude 00:48:40 18° 99° (E) 1,955 4.3 -14.2°
Drops below altitude 10° 00:52:18 10° 58° (ENE) 2,461 5.5 -14.0°
Sets 00:55:30 0° 41° (NE) 3,403 6.9 -13.8°
